Meath Environmental Platform

Observations for Trim Market St

Time AQI Temp °C Hum % Pres Pa CO μg/m³ H₂S μg/m³ NO μg/m³ NO₂ μg/m³ O₃ μg/m³ SO₂ μg/m³ PM1 μg/m³ PM2.5 μg/m³ PM10 μg/m³
Tuesday 7 July 2026
19:11 1 28.8 46 62,276 0 8.04 0 10.77 14.14 0 4.28 6.27 8.3
19:08 1 28.8 46 62,541 0 10.63 0 13.7 19.2 0 4.99 8.36 11.38
19:06 1 28.9 46 62,841 0 11.56 0 15.3 19.26 0 2.85 7.85 9.84
19:01 1 28.9 45 62,978 0 10.68 0 16.61 13.79 0 3.56 6.3 7.53
18:54 1 29.1 45 63,339 0 12.41 0 14.62 19.17 0 4.28 7.37 9.08
18:53 1 29.1 45 63,448 0 10.75 0 14.64 20.36 0 4.28 8.42 11.41
18:51 1 29.2 45 63,479 0 13.61 0 24.52 0 0 2.14 6.34 8.3
18:48 1 29.3 44 63,721 0 14.33 0 13.63 15.7 0 4.28 7.92 9.86
18:46 1 29.3 44 63,847 0 16.17 0 14.07 24.42 0 4.28 7.42 9.87
18:45 1 29.4 44 63,985 0 15.9 0 15.28 21.61 0 4.99 9.01 14.58
18:44 1 29.4 44 64,167 0 15.98 0 14.59 21.91 0 4.99 7.97 10.66
18:43 1 29.5 43 64,331 0 14.56 0 12.98 21.62 0 5.7 8.5 11.45
18:42 1 29.5 43 64,384 0 11.48 0 11.68 16.18 0 6.41 9.02 12.24
18:41 1 29.5 43 64,347 0 12.25 0 13.99 19.66 0 4.28 7.98 9.88
18:40 1 29.5 43 64,362 0 10.59 0 11.68 9.12 0 4.28 8.5 10.67
18:39 1 29.6 44 64,313 0 13.8 0 15.84 16.06 0 5.7 8.49 10.66
18:38 1 29.6 44 64,280 0 14.58 0 13.14 15.27 0 4.28 7.45 9.09
18:37 1 29.6 44 64,264 0 15.65 0 13.34 16.93 0 4.28 9.54 12.23
18:36 1 29.7 43 64,309 0 16.34 0 13.72 20.08 0 2.85 6.4 7.53
18:35 1 29.7 43 64,315 0 15.51 0 14.63 19.11 0 4.28 7.46 9.1